Weather History for Auburn, IN

Change the Weather History Date:

Saturday, September 8, 2012

  Actual Average (KFWA) Record (KFWA)
Temperature  
Mean Temperature 61 °F 67 °F  
Max Temperature 69 °F 79 °F 96 °F (1922)
Min Temperature 53 °F 56 °F 39 °F (1986)
Degree Days  
Heating Degree Days 4 2  
Month to date heating degree days 9  
Since 1 July heating degree days 21  
Cooling Degree Days 0 4  
Month to date cooling degree days 36  
Year to date cooling degree days 753  
Growing Degree Days 11 (Base 50)    
Moisture  
Dew Point 51 °F    
Average Humidity 71    
Maximum Humidity 94    
Minimum Humidity 43    
Precipitation  
Precipitation 0.24 in 0.09 in 1.60 in (1942)
Month to date precipitation 0.77  
Year to date precipitation 27.61  
Snow  
Snow 0.00 in 0.00 in 0.00 in (2002)
Month to date snowfall 0.0  
Since 1 July snowfall 0.0  
Since 1 September snowfall 0.0  
Snow Depth -    
Sea Level Pressure  
Sea Level Pressure 29.81 in    
Wind  
Wind Speed 9 mph (NW)    
Max Wind Speed 17 mph    
Max Gust Speed 24 mph    
Visibility 10 miles    
Events Rain    
T = Trace of Precipitation, MM = Missing Value Source: NWS Daily Summary

Daily Weather History Graph

Daily Weather History Graph

Search for Another Location

Airport:

Trip Planner

Search our weather history database for the weather conditions in past years. The results will help you decide how hot, cold, wet, or windy it might be!

Date:

Astronomy

Sep. 08, 2012 Rise Set
Actual Time 7:14 AM EDT 8:00 PM EDT
Civil Twilight 6:46 AM EDT 8:28 PM EDT
Nautical Twilight 6:12 AM EDT 9:01 PM EDT
Astronomical Twilight 5:38 AM EDT 9:35 PM EDT
Moon No Moon Rise 2:59 PM EDT (9/8)
Length of Visible Light 13h 42m
Length of Day
12h 46m
Waning Gibbous, 49% of the Moon is Illuminated
Sep 8
Waning Gibbous
Sep 15
New
Sep 22
First Quarter
Sep 29
Full
Oct 8
Last Quarter

Hourly Weather History & Observations

Time (EDT) Temp. Dew Point Humidity Pressure Visibility Wind Dir Wind Speed Gust Speed Precip Events Conditions
12:55 AM 64.4 °F 62.6 °F 94% 29.71 in 7.0 mi North 13.8 mph 18.4 mph 0.11 in Rain Rain
1:15 AM 62.6 °F 59.0 °F 88% 29.71 in 10.0 mi North 12.7 mph 17.3 mph 0.01 in Rain Rain
1:35 AM 60.8 °F 59.0 °F 94% 29.73 in 7.0 mi NNW 10.4 mph 18.4 mph 0.05 in Rain Heavy Rain
1:55 AM 59.0 °F 57.2 °F 94% 29.71 in 7.0 mi North 12.7 mph 18.4 mph 0.10 in Rain Rain
2:15 AM 59.0 °F 55.4 °F 88% 29.71 in 7.0 mi NNW 11.5 mph 16.1 mph 0.01 in   Drizzle
2:35 AM 59.0 °F 55.4 °F 88% 29.72 in 10.0 mi NNW 11.5 mph 17.3 mph 0.02 in Rain Rain
2:55 AM 57.2 °F 53.6 °F 88% 29.73 in 10.0 mi NNW 9.2 mph 16.1 mph 0.02 in Rain Light Rain
3:15 AM 55.4 °F 53.6 °F 94% 29.73 in 10.0 mi NNW 9.2 mph 16.1 mph 0.01 in Rain Light Rain
3:35 AM 55.4 °F 53.6 °F 94% 29.74 in 10.0 mi NNW 9.2 mph - 0.01 in   Overcast
3:55 AM 55.4 °F 53.6 °F 94% 29.74 in 10.0 mi NNW 8.1 mph - 0.01 in   Overcast
4:15 AM 55.4 °F 53.6 °F 94% 29.74 in 10.0 mi NW 4.6 mph - N/A   Overcast
4:35 AM 55.4 °F 53.6 °F 94% 29.74 in 10.0 mi NNW 6.9 mph - N/A   Overcast
5:15 AM 55.4 °F 53.6 °F 94% 29.74 in 10.0 mi NW 5.8 mph - N/A   Overcast
5:35 AM 55.4 °F 53.6 °F 94% 29.73 in 10.0 mi NNW 5.8 mph - N/A   Mostly Cloudy
5:55 AM 55.4 °F 53.6 °F 94% 29.74 in 10.0 mi NW 4.6 mph - N/A   Scattered Clouds
6:15 AM 55.4 °F 51.8 °F 88% 29.75 in 10.0 mi WNW 4.6 mph - N/A   Scattered Clouds
6:35 AM 53.6 °F 51.8 °F 94% 29.76 in 10.0 mi WNW 4.6 mph - N/A   Clear
6:55 AM 53.6 °F 51.8 °F 94% 29.77 in 10.0 mi WNW 3.5 mph - N/A   Clear
7:15 AM 53.6 °F 51.8 °F 94% 29.78 in 10.0 mi WNW 3.5 mph - N/A   Scattered Clouds
7:35 AM 53.6 °F 51.8 °F 94% 29.78 in 10.0 mi West 3.5 mph - N/A   Overcast
7:55 AM 53.6 °F 51.8 °F 94% 29.79 in 10.0 mi West 4.6 mph - N/A   Scattered Clouds
8:15 AM 55.4 °F 53.6 °F 94% 29.80 in 10.0 mi West 4.6 mph - N/A   Scattered Clouds
8:35 AM 55.4 °F 53.6 °F 94% 29.81 in 10.0 mi West 5.8 mph - N/A   Clear
8:55 AM 59.0 °F 53.6 °F 82% 29.81 in 10.0 mi West 6.9 mph - N/A   Mostly Cloudy
9:15 AM 59.0 °F 53.6 °F 82% 29.82 in 10.0 mi NW 8.1 mph - N/A   Mostly Cloudy
9:35 AM 60.8 °F 53.6 °F 77% 29.82 in 10.0 mi NW 8.1 mph - N/A   Scattered Clouds
9:55 AM 60.8 °F 51.8 °F 72% 29.83 in 10.0 mi NW 9.2 mph - N/A   Clear
10:15 AM 62.6 °F 51.8 °F 68% 29.83 in 10.0 mi NNW 10.4 mph 18.4 mph N/A   Scattered Clouds
10:35 AM 62.6 °F 51.8 °F 68% 29.83 in 10.0 mi NW 11.5 mph 16.1 mph N/A   Scattered Clouds
10:55 AM 64.4 °F 51.8 °F 64% 29.84 in 10.0 mi NNW 9.2 mph - N/A   Scattered Clouds
11:15 AM 64.4 °F 51.8 °F 64% 29.84 in 10.0 mi NW 10.4 mph 16.1 mph N/A   Scattered Clouds
11:35 AM 66.2 °F 51.8 °F 60% 29.84 in 10.0 mi NNW 9.2 mph - N/A   Scattered Clouds
11:55 AM 66.2 °F 50.0 °F 56% 29.84 in 10.0 mi NW 12.7 mph 18.4 mph N/A   Scattered Clouds
12:15 PM 66.2 °F 50.0 °F 56% 29.84 in 10.0 mi WNW 12.7 mph 19.6 mph N/A   Scattered Clouds
12:35 PM 68.0 °F 51.8 °F 56% 29.84 in 10.0 mi WNW 15.0 mph 19.6 mph N/A   Mostly Cloudy
12:55 PM 64.4 °F 50.0 °F 59% 29.84 in 10.0 mi NW 11.5 mph 19.6 mph N/A   Mostly Cloudy
1:15 PM 68.0 °F 50.0 °F 52% 29.84 in 10.0 mi NW 10.4 mph 24.2 mph N/A   Scattered Clouds
1:35 PM 69.8 °F 50.0 °F 49% 29.83 in 10.0 mi WNW 12.7 mph 17.3 mph N/A   Scattered Clouds
1:55 PM 68.0 °F 50.0 °F 52% 29.83 in 10.0 mi NW 10.4 mph - N/A   Mostly Cloudy
2:15 PM 68.0 °F 50.0 °F 52% 29.84 in 10.0 mi WNW 11.5 mph - N/A   Mostly Cloudy
2:35 PM 68.0 °F 50.0 °F 52% 29.84 in 10.0 mi WNW 12.7 mph 17.3 mph N/A   Scattered Clouds
2:55 PM 69.8 °F 50.0 °F 49% 29.83 in 10.0 mi West 11.5 mph 17.3 mph N/A   Scattered Clouds
3:15 PM 69.8 °F 46.4 °F 43% 29.84 in 10.0 mi WNW 12.7 mph 21.9 mph N/A   Clear
3:35 PM 69.8 °F 46.4 °F 43% 29.84 in 10.0 mi West 12.7 mph 19.6 mph N/A   Scattered Clouds
4:15 PM 68.0 °F 46.4 °F 46% 29.83 in 10.0 mi WNW 13.8 mph 19.6 mph N/A   Scattered Clouds
4:35 PM 69.8 °F 46.4 °F 43% 29.83 in 10.0 mi West 16.1 mph 23.0 mph N/A   Scattered Clouds
4:55 PM 69.8 °F 46.4 °F 43% 29.83 in 10.0 mi West 17.3 mph 21.9 mph N/A   Clear
5:15 PM 69.8 °F 46.4 °F 43% 29.83 in 10.0 mi West 15.0 mph 18.4 mph N/A   Clear
5:35 PM 69.8 °F 46.4 °F 43% 29.83 in 10.0 mi WNW 12.7 mph 19.6 mph N/A   Scattered Clouds
5:55 PM 69.8 °F 46.4 °F 43% 29.83 in 10.0 mi West 11.5 mph - N/A   Scattered Clouds
6:15 PM 68.0 °F 46.4 °F 46% 29.84 in 10.0 mi WNW 11.5 mph - N/A   Scattered Clouds
6:35 PM 68.0 °F 46.4 °F 46% 29.84 in 10.0 mi West 10.4 mph 20.7 mph N/A   Clear
6:55 PM 66.2 °F 44.6 °F 46% 29.85 in 10.0 mi WNW 13.8 mph 18.4 mph N/A   Clear
7:15 PM 64.4 °F 44.6 °F 49% 29.85 in 10.0 mi WNW 13.8 mph - N/A   Clear
7:35 PM 64.4 °F 46.4 °F 52% 29.86 in 10.0 mi WNW 8.1 mph - N/A   Clear
7:55 PM 62.6 °F 46.4 °F 55% 29.86 in 10.0 mi WNW 6.9 mph - N/A   Clear
8:15 PM 60.8 °F 46.4 °F 59% 29.87 in 10.0 mi WNW 6.9 mph - N/A   Clear
8:35 PM 60.8 °F 46.4 °F 59% 29.87 in 10.0 mi West 4.6 mph - N/A   Scattered Clouds
8:55 PM 59.0 °F 46.4 °F 63% 29.88 in 10.0 mi Calm Calm - N/A   Clear
9:15 PM 59.0 °F 48.2 °F 67% 29.88 in 10.0 mi West 3.5 mph - N/A   Clear
9:35 PM 59.0 °F 48.2 °F 67% 29.89 in 10.0 mi Calm Calm - N/A   Clear
9:55 PM 55.4 °F 50.0 °F 82% 29.89 in 10.0 mi Calm Calm - N/A   Clear
10:15 PM 53.6 °F 50.0 °F 88% 29.89 in 10.0 mi Calm Calm - N/A   Clear
10:35 PM 53.6 °F 50.0 °F 88% 29.89 in 10.0 mi Calm Calm - N/A   Clear
11:15 PM 53.6 °F 50.0 °F 88% 29.89 in 10.0 mi South 3.5 mph - N/A   Scattered Clouds
11:35 PM 53.6 °F 50.0 °F 88% 29.89 in 10.0 mi Calm Calm - N/A   Scattered Clouds
11:55 PM 53.6 °F 50.0 °F 88% 29.89 in 10.0 mi Calm Calm - N/A   Mostly Cloudy